Timeline UpdatesTrip UpdatesNews PostsPvt PostsTravel TipsAdmin PostsConv PostsFollowed PostsChat RequestsBlog PostsPNR Posts

Disclaimer
Search
 
 
Thu Apr 24, 2014 14:03:47 ISTHomeTrainsΣChainsAtlasPNRForumGalleryNewsFAQTripsMembersLoginFeedback
No Recent News for this Train
Other Trains in the News **new
Latest...
Will stop at Ramanagaram, according to IRCTC
Tue Mar 11, 2014 (07:35PM)
⇐ Return Journey: Train# 16209

16210/Mysore-Ajmer Express

Mar 11 2014 (10:33AM)
Change Departure Station:
Change Arrival Station:
Post a Train Travel TipPost a Train Travel Tip **new
Post a Comment/Question/Picture/VideoPost a Comment/Question/Picture/Video
Pantry/Catering
✓ Pantry Car Avbl
✓ Catering Avbl
RSA - Rake Sharing
16217/16218 Mysore-Shirdi Express
Rake/Coach Composition
LOCO-SLR-GEN-GEN-A1-A2-B1-B2-S1-S2-S3-PC-S4-S5-S6-S7-S8-S9-S10-S11-S12-S13-GEN-SLR; Total 23 coaches
Loco
UBL WDP-4/4B No Loco Change at Pune / Ahmedabad
News    PNR    Forum    Time-Table    Availability    Fare Chart    Map    Arr/Dep History    Trips    Gallery    ΣChains    X/O    Timeline    
Travel Time: 2h 13m    1 halts    Distance: 95 km    Avg Speed: 42 km/hr
Type: Mail/Express
Zone: SWR/South Western
Departs @ 04:45 (Avg 28m late)
Platform# ???
   W F 
Haveri/HVR 
Arrives @ 06:58 (Avg 27m late)
Platform# 1
   W F 
Dharwad/DWR 

1 halts. 13 intermediate Stations between Haveri and Dharwad

Show ALL intermediate Stations  Show Old Time-Table

#CodeStation NameX/OArrivesAvgDepartsAvgHaltPFDay#KmSpeedElevZoneAddress
1MYSMysore Junction (6)  -18:00+051-532.054760mSWRTel No 0821-2521751.URL: www.mysorerailwaystation.in, Karnataka
2MYAMandya (3)  18:49+1918:50+201m--1-487.753672mSWRMandya, Karnataka
3RMGMRamanagaram (4)X  19:45+019:46+01m21-439.124692mSWRRamanagaram, Karnataka
4SBCBangalore City Junction (10)O  21:35-121:55+220m81-394.834903mSWRBengaluru-560023, Karnataka
5YPRYesvantpur Junction (6)  22:05+422:07+42m--1-389.269919mSWRTel:080-23371444, Karnataka
6TKTumkur (3)  23:03+623:05+62m11-325.271823mSWRTumkur, Karnataka
7TTRTiptur (4)  00:05+1000:06+121m22-254.239860mSWRTiptur, Karnataka
8ASKArsikere Junction (3)  00:45+200:50+85m--2-228.756816mSWRArsikere, Karnataka
9RRBBirur Junction (3)  01:38+301:40+52m--2-183.764802mSWRBirur, Karnataka
10DVGDavangere (2)  03:27+2203:30+223m--2-68.743598mSWRDavanagere, Karnataka
11HRRHarihar (3)  03:48+2303:50+242m--2-55.958553mSWRHarihar, Karnataka
12RNRRanibennur (3)  04:14+2704:15+281m--2-32.567583mSWRRanebennur, Karnataka
13HVR»Haveri (3)»  04:44+2704:45+281m--20.045558mSWRHaveri, Karnataka
14UBLHubli Junction (5)  06:25+906:35+2010m1275.152640mSWRHubli - 580020, Karnataka
15DWR•Dharwad (4)•  06:58+2707:00+272m1295.251737mSWRDharwad 580001, Karnataka
16LDLonda Junction (4)  08:23+1808:25+182m22165.644643mSWRLonda, Karnataka
17BGMBelgaum (3)X  09:35+1909:40+255m12216.946752mSWRBelgaum 590001, Karnataka
18MRJMiraj Junction (6)  12:40+312:45+125m12354.337554mCRMiraj 416410, Maharashtra
19SLISangli (3)  12:57+1613:00+173m12361.669559mCRSangli, Maharashtra
20KRDKarad (3)  13:59+2114:00+231m12429.659597mCRDist- Satara., Maharashtra
21STRSatara (3)  15:00+2615:03+283m12488.240637mCRSatara, Maharashtra
22PUNEPune Junction (6)  18:40+318:50+910m32633.955556mCRPune 411001, Maharashtra
23LNLLonavala (3)  19:59+320:00+61m22697.535623mCRLonavala 410401, Maharashtra
24KJTKarjat Junction (4)X  20:49+720:50+91m22726.25657mCRKarjat, Maharashtra
25KYNKalyan Junction (8)  21:40+621:45+55m72773.04510mCRKalyan 421301, Maharashtra
26BIRDBhiwandi Road (4)  22:09+622:10+81m42791.04126mCRBhiwandi, Maharashtra
27BSRVasai Road (7)  22:50+322:55+55m62818.3647mWRThane-401202, Maharashtra
28VAPIVapi (3)X  00:49+1300:50+141m--3939.46327mWRVapi, Gujarat
29BLValsad (3)  01:15+901:16+131m23965.64615mWRValsad, Gujarat
30STSurat (4)  02:45+102:55+110m131034.37919mWRSurat 395001, Gujarat
31BHBharuch Junction (5)  03:40+403:41+51m331093.67419mWRBharuch, Gujarat
32BRCVadodara Junction (7)  04:38+904:55+717m231164.16536mWRVadodara, Gujarat
33ANNDAnand Junction (6)  05:28+605:29+61m--31199.96944mWRAnand, Gujarat
34NDNadiad Junction (4)X  05:45+1805:46+181m--31218.44637mWRNadiad, Gujarat
35ADIAhmedabad Junction (12)  06:45+2207:05+2220m331263.93351mWRAhmedabad, Gujarat
36MSHMahesana Junction (6)  09:19+709:20+101m231336.95095mWRMehsana, Gujarat
37PNUPalanpur Junction (5)  10:38+610:40+122m131401.949216mWRPalanpur, Gujarat
38ABRAbu Road (3)XO  11:45+1611:55+2010m231454.566264mNWRSirohi Dist, Rajasthan
39SOHSirohi Road (2)  12:35+2312:36+241m--31498.465369mNWRPindwara, Rajasthan
40FAFalna (2)  13:27+2613:28+281m131553.464282mNWRFalna, Rajasthan
41MJMarwar Junction (4)  14:30+2514:32+272m--31619.966267mNWRMarwar Junction, Rajasthan
42SODSojat Road (2)  14:51+3014:52+321m--31640.845295mNWRSojat Road, Rajasthan
43BERBeawar (2)X  16:20+1716:21+181m--31707.345447mNWRBeawar, Rajasthan
44AIIAjmer Junction (5)  17:30+4-331759.5-464mNWRPin: 305001, Rajasthan
Scroll to Top
Scroll to Bottom